Date String (YYYY-MM-DD hh:mm:ss) UTC,Instrument flags,absolute air pressure of the measurement (hPa),sample flow rate (lpm),inlet stack bypass flow (lpm),air temperature of the measurement (°C),ambient temperature measured by the external sensor (°C),aerosol sample conditioner tube jacket temperature (°C),OPC LED temperature (°C),internal box temperature (°C),relative humidity of the measurement (%),span deviation,mass concentration of particles derived from Lorenz-Mie calculation of OPC scattering (μg/m³),mass concentration of particles derived from Lorenz-Mie calculation of OPC scattering (μg/m³),mass concentration of particles derived from Lorenz-Mie calculation of OPC scattering (μg/m³)
DateTimeUTC,F1_M11,P_M11,Q1_M11,Q2_M11,T1_M11,T2_M11,T3_M11,T4_M11,T5_M11,U1_M11,ZSPAN_M11,X2_M11,X0_M11,X1_M11
2023-08-30 18:00:00,SystemResetWarning,0831.8,5.01,000.00,027.9,023.2,000.0,035.1,027.6,33.2,0000.0,0005.32,0010.44,0004.88
2023-08-30 18:01:00,SystemResetWarning,0831.8,4.99,000.00,027.9,023.7,000.0,035.2,027.8,33.4,0000.0,0005.36,0010.49,0004.89
2023-08-30 18:02:00,SystemResetWarning,0831.8,5.00,000.00,028.0,023.9,000.0,035.3,027.9,33.6,0000.4,0005.36,0010.41,0004.90
2023-08-30 18:03:00,SystemResetWarning,0831.9,4.99,000.00,027.9,023.1,000.0,035.2,027.6,34.6,0000.2,0005.33,0010.04,0004.88
2023-08-30 18:04:00,SystemResetWarning,0831.8,5.01,000.00,027.9,022.6,000.0,035.2,027.4,35.4,0000.7,0005.29,0009.93,0004.85
2023-08-30 18:05:00,SystemResetWarning,0831.9,4.98,000.00,027.9,022.7,000.0,035.2,027.5,35.0,0000.1,0005.26,0009.90,0004.84
2023-08-30 18:06:00,SystemResetWarning,0831.7,5.03,000.00,028.0,023.1,000.0,035.3,027.7,35.3,0000.1,0005.25,0009.76,0004.83
2023-08-30 18:07:00,SystemResetWarning,0831.9,5.01,000.00,028.3,023.5,000.0,035.3,027.9,34.5,0000.0,0005.23,0009.23,0004.82
2023-08-30 18:08:00,SystemResetWarning,0831.7,4.98,000.00,028.6,023.6,000.0,035.4,028.0,34.2,0000.4,0005.22,0009.10,0004.79
2023-08-30 18:09:00,SystemResetWarning,0831.7,5.01,000.00,028.7,022.9,000.0,035.4,027.7,34.1,0000.0,0005.18,0008.55,0004.76
2023-08-30 18:10:00,SystemResetWarning,0831.7,5.00,000.00,028.7,022.5,000.0,035.4,027.6,34.1,0000.0,0005.17,0008.42,0004.75
2023-08-30 18:11:00,SystemResetWarning,0831.7,5.01,000.00,028.7,022.7,000.0,035.5,027.6,34.3,0000.0,0005.15,0009.05,0004.73
2023-08-30 18:12:00,SystemResetWarning,0831.7,4.99,000.00,028.6,023.1,000.0,035.6,027.7,33.1,0000.0,0005.09,0009.34,0004.71
2023-08-30 18:13:00,SystemResetWarning,0831.7,5.00,000.00,028.6,023.6,000.0,035.7,027.9,33.1,0000.0,0005.06,0009.29,0004.69
2023-08-30 18:14:00,SystemResetWarning,0831.7,5.00,000.00,028.6,023.7,000.0,035.7,027.9,33.2,0000.0,0005.09,0009.61,0004.69
2023-08-30 18:15:00,SystemResetWarning,0831.7,4.98,000.00,028.5,022.9,000.0,035.7,027.5,33.2,0000.0,0005.12,0010.03,0004.71
2023-08-30 18:16:00,SystemResetWarning,0831.6,5.01,000.00,028.4,022.3,000.0,035.6,027.3,33.7,0000.0,0005.17,0010.44,0004.73
2023-08-30 18:17:00,SystemResetWarning,0831.6,5.01,000.00,028.3,022.4,000.0,035.6,027.4,33.2,0000.0,0005.21,0011.08,0004.74
2023-08-30 18:18:00,SystemResetWarning,0831.6,4.99,000.00,028.1,022.7,000.0,035.6,027.4,34.4,0000.0,0005.20,0011.22,0004.73
2023-08-30 18:19:00,SystemResetWarning,0831.6,5.01,000.00,028.1,023.2,000.0,035.7,027.7,34.0,0000.2,0005.20,0011.41,0004.73
2023-08-30 18:20:00,SystemResetWarning,0831.5,5.00,000.00,028.1,023.7,000.0,035.7,027.9,34.6,0000.1,0005.27,0012.00,0004.74
2023-08-30 18:21:00,SystemResetWarning,0831.5,4.99,000.00,028.0,024.0,000.0,035.7,028.0,34.3,0000.7,0005.34,0012.59,0004.77
2023-08-30 18:22:00,SystemResetWarning,0831.5,4.99,000.00,028.0,023.5,000.0,035.6,027.7,34.6,0000.7,0005.34,0012.63,0004.78
2023-08-30 18:23:00,SystemResetWarning,0831.5,5.02,000.00,027.9,022.6,000.0,035.6,027.4,32.8,0001.0,0005.37,0012.12,0004.79
2023-08-30 18:24:00,SystemResetWarning,0831.5,4.99,000.00,027.8,022.4,000.0,035.5,027.4,32.9,0000.1,0005.39,0012.22,0004.80
2023-08-30 18:25:00,SystemResetWarning,0831.5,4.99,000.00,027.7,022.6,000.0,035.5,027.4,33.1,0000.4,0005.37,0012.03,0004.80
2023-08-30 18:26:00,SystemResetWarning,0831.4,4.99,000.00,027.7,023.0,000.0,035.5,027.5,33.6,-000.2,0005.34,0011.84,0004.79
2023-08-30 18:27:00,SystemResetWarning,0831.5,5.01,000.00,027.7,023.6,000.0,035.5,027.8,34.6,-000.5,0005.30,0011.31,0004.78
2023-08-30 18:28:00,SystemResetWarning,0831.4,5.01,000.00,027.7,024.0,000.0,035.5,027.9,34.4,0000.1,0005.26,0011.42,0004.77
2023-08-30 18:29:00,SystemResetWarning,0831.4,4.98,000.00,027.7,023.4,000.0,035.4,027.6,34.7,-000.0,0005.27,0011.28,0004.78
2023-08-30 18:30:00,SystemResetWarning,0831.4,5.00,000.00,027.6,022.5,000.0,035.3,027.3,33.8,-000.2,0005.30,0011.30,0004.79
2023-08-30 18:31:00,SystemResetWarning,0831.4,5.01,000.00,027.5,022.3,000.0,035.3,027.3,33.5,0000.5,0005.31,0010.77,0004.80
2023-08-30 18:32:00,SystemResetWarning,0831.4,5.01,000.00,027.4,022.6,000.0,035.2,027.3,33.9,0001.2,0005.27,0010.40,0004.79
2023-08-30 18:33:00,SystemResetWarning,0831.3,5.00,000.00,027.4,023.0,000.0,035.2,027.5,33.0,0000.8,0005.26,0010.14,0004.79
2023-08-30 18:34:00,SystemResetWarning,0831.4,5.00,000.00,027.4,023.5,000.0,035.3,027.7,33.5,0000.5,0005.25,0010.02,0004.79
2023-08-30 18:35:00,SystemResetWarning,0831.3,5.00,000.00,027.4,024.0,000.0,035.3,027.8,34.4,0000.7,0005.25,0011.08,0004.79
2023-08-30 18:36:00,SystemResetWarning,0831.3,4.98,000.00,027.4,023.8,000.0,035.2,027.7,35.1,0000.8,0005.28,0011.45,0004.81
2023-08-30 18:37:00,SystemResetWarning,0831.3,5.02,000.00,027.4,022.9,000.0,035.2,027.4,35.5,0000.2,0005.36,0011.69,0004.83
2023-08-30 18:38:00,SystemResetWarning,0831.3,4.99,000.00,027.5,022.7,000.0,035.1,027.5,34.9,0000.7,0005.40,0012.28,0004.85
2023-08-30 18:39:00,SystemResetWarning,0831.2,5.01,000.00,027.7,022.9,000.0,035.1,027.6,35.2,0000.6,0005.42,0011.86,0004.87
2023-08-30 18:40:00,SystemResetWarning,0831.3,4.98,000.00,027.9,023.3,000.0,035.1,027.8,33.0,0000.9,0005.47,0011.83,0004.90
2023-08-30 18:41:00,SystemResetWarning,0831.2,5.01,000.00,028.0,023.7,000.0,035.2,028.0,32.7,0000.5,0005.53,0011.97,0004.93
2023-08-30 18:42:00,SystemResetWarning,0831.3,5.01,000.00,028.1,023.9,000.0,035.2,028.0,33.4,0000.6,0005.55,0012.32,0004.94
2023-08-30 18:43:00,SystemResetWarning,0831.2,4.98,000.00,028.1,023.2,000.0,035.2,027.7,33.3,-000.2,0005.55,0012.53,0004.94
2023-08-30 18:44:00,SystemResetWarning,0831.1,5.00,000.00,028.1,022.6,000.0,035.2,027.5,33.1,0000.5,0005.57,0012.65,0004.96
2023-08-30 18:45:00,SystemResetWarning,0831.1,5.01,000.00,028.0,022.7,000.0,035.3,027.5,32.8,0000.3,0005.57,0012.70,0004.97
2023-08-30 18:46:00,SystemResetWarning,0831.1,5.01,000.00,027.9,023.1,000.0,035.3,027.6,33.3,0000.5,0005.59,0011.75,0004.97
2023-08-30 18:47:00,SystemResetWarning,0831.1,5.00,000.00,027.9,023.5,000.0,035.4,027.7,33.8,0000.0,0005.60,0012.43,0004.99
2023-08-30 18:48:00,SystemResetWarning,0831.1,4.99,000.00,027.9,023.6,000.0,035.4,027.8,34.1,0000.4,0005.61,0013.34,0005.01
2023-08-30 18:49:00,SystemResetWarning,0831.1,4.98,000.00,027.9,022.8,000.0,035.4,027.4,34.8,0000.1,0005.69,0012.94,0005.03
2023-08-30 18:50:00,SystemResetWarning,0831.1,5.03,000.00,027.8,022.3,000.0,035.3,027.4,34.9,0000.4,0005.71,0012.97,0005.05
2023-08-30 18:51:00,SystemResetWarning,0831.1,4.98,000.00,027.8,022.5,000.0,035.3,027.5,34.7,0000.2,0005.72,0012.67,0005.06
2023-08-30 18:52:00,SystemResetWarning,0831.1,5.00,000.00,027.8,022.9,000.0,035.3,027.6,35.1,-000.3,0005.69,0012.48,0005.06
2023-08-30 18:53:00,SystemResetWarning,0831.2,5.02,000.00,027.9,023.4,000.0,035.4,027.8,34.0,-000.7,0005.69,0012.14,0005.06
2023-08-30 18:54:00,SystemResetWarning,0831.1,4.98,000.00,028.1,023.9,000.0,035.4,028.0,33.8,-000.8,0005.71,0012.76,0005.09
2023-08-30 18:55:00,SystemResetWarning,0831.1,5.02,000.00,028.2,023.9,000.0,035.4,028.0,33.4,-001.3,0005.79,0012.76,0005.12
2023-08-30 18:56:00,SystemResetWarning,0831.1,4.98,000.00,028.1,023.0,000.0,035.4,027.6,33.1,-001.4,0005.87,0013.36,0005.17
2023-08-30 18:57:00,SystemResetWarning,0831.1,4.99,000.00,028.0,022.6,000.0,035.4,027.5,34.1,-001.6,0005.92,0013.47,0005.21
2023-08-30 18:58:00,SystemResetWarning,0831.0,5.01,000.00,028.0,022.7,000.0,035.4,027.5,33.9,-001.2,0005.97,0012.49,0005.23
2023-08-30 18:59:00,SystemResetWarning,0830.9,5.01,000.00,027.9,023.1,000.0,035.4,027.6,33.5,-001.1,0005.96,0011.70,0005.23
